UAE69R OMDB-KJFK

Flight info

Callsign UAE69R
Flight time N/A
Altitude 28000
Route ANVIX R401 GIDIS G783 VAVIM T636 KULMI Q624 ESROM M318 GOLGU M550 MIGMA M628 AMBAG/N0501F300 M321 KSA T503 OVANO L768 FIRAS R655 KTN/N0467F260 R655 LEBOR/N0496F300 UR655 BALMA DCT VESAR UN135 NEKES/N0495F320 UN135 IMR UN127 RIKSO DCT BITLA DCT DOBAR DCT PETAK DCT LURUT DCT RIPDU DCT ASTIG DCT RONOP DCT GIGUS DCT BALSI DCT GIPNO DCT RUSIT DCT TIS/N0482F340 DCT VALKU/N0484F330 DCT PECNO DCT LMG/N0482F340 DCT MANAK DCT TIRAV DCT MOKOR DCT BAGAD DCT DEGEX DCT ALUTA DCT TAKAS/M084F340 DCT KOGAD DCT 4930N02000W 48N030W 4730N04000W 4730N05000W DCT OMSAT/N0487F340 N226B TUSKY DCT PLYMM PARCH4
Aircraft B77W/H-SDE1E2E3FGHIJ2J3J4J5M1RWXYZ/LB1D1

Departure

Time 2026-04-20 03:08
Airport Dubai International Airport (OMDB)

Arrival

Time N/A
Airport John F. Kennedy International Airport (KJFK)
Time Latitude Longitude Altitude Speed Heading
2026-04-20 01:35 25.24554 55.36489 29 ft 0 kts 31°
2026-04-20 02:45 25.24546 55.36484 31 ft 3 kts 31°
2026-04-20 02:45 25.24529 55.36472 28 ft 3 kts 31°
2026-04-20 02:46 25.24512 55.36461 31 ft 3 kts 23°
2026-04-20 02:46 25.24494 55.36456 31 ft 3 kts 352°
2026-04-20 02:46 25.24476 55.36462 31 ft 3 kts 319°
2026-04-20 02:46 25.24463 55.36478 31 ft 3 kts 298°
2026-04-20 02:47 25.24456 55.36495 31 ft 3 kts 290°
2026-04-20 02:47 25.24449 55.36516 31 ft 3 kts 290°
2026-04-20 02:47 25.24446 55.36527 31 ft 0 kts 290°
2026-04-20 02:50 25.24446 55.36526 31 ft 1 kts 290°
2026-04-20 02:50 25.24451 55.36512 30 ft 4 kts 291°
2026-04-20 02:50 25.24467 55.36475 31 ft 7 kts 298°
2026-04-20 02:51 25.24495 55.36423 29 ft 9 kts 301°
2026-04-20 02:51 25.24533 55.36355 27 ft 12 kts 301°
2026-04-20 02:51 25.24580 55.36272 30 ft 14 kts 302°
2026-04-20 02:51 25.24634 55.36176 27 ft 15 kts 302°
2026-04-20 02:52 25.24686 55.36083 30 ft 15 kts 302°
2026-04-20 02:52 25.24740 55.35987 28 ft 15 kts 302°
2026-04-20 02:52 25.24793 55.35892 31 ft 15 kts 302°
2026-04-20 02:52 25.24847 55.35797 28 ft 15 kts 302°
2026-04-20 02:53 25.24904 55.35706 30 ft 14 kts 306°
2026-04-20 02:53 25.24962 55.35617 30 ft 15 kts 304°
2026-04-20 02:53 25.25016 55.35521 28 ft 14 kts 301°
2026-04-20 02:53 25.25068 55.35427 27 ft 14 kts 302°
2026-04-20 02:54 25.25122 55.35333 27 ft 14 kts 302°
2026-04-20 02:54 25.25181 55.35241 31 ft 14 kts 307°
2026-04-20 02:54 25.25240 55.35150 28 ft 14 kts 302°
2026-04-20 02:54 25.25293 55.35055 30 ft 14 kts 302°
2026-04-20 02:55 25.25342 55.34968 29 ft 12 kts 302°
2026-04-20 02:55 25.25399 55.34905 31 ft 12 kts 335°
2026-04-20 02:55 25.25477 55.34908 29 ft 12 kts 21°
2026-04-20 02:55 25.25548 55.34953 29 ft 12 kts 31°
2026-04-20 02:56 25.25618 55.34999 29 ft 12 kts 31°
2026-04-20 02:56 25.25688 55.35046 28 ft 12 kts 31°
2026-04-20 02:56 25.25741 55.35081 29 ft 7 kts 31°
2026-04-20 02:56 25.25752 55.35127 30 ft 7 kts 105°
2026-04-20 02:57 25.25736 55.35175 29 ft 7 kts 92°
2026-04-20 02:57 25.25765 55.35213 29 ft 7 kts 29°
2026-04-20 02:57 25.25812 55.35243 29 ft 9 kts 30°
2026-04-20 02:57 25.25868 55.35280 31 ft 10 kts 31°
2026-04-20 02:58 25.25935 55.35326 30 ft 13 kts 33°
2026-04-20 02:58 25.25995 55.35406 32 ft 14 kts 66°
2026-04-20 02:58 25.26002 55.35513 26 ft 14 kts 103°
2026-04-20 02:58 25.25958 55.35611 26 ft 15 kts 121°
2026-04-20 02:59 25.25896 55.35721 27 ft 19 kts 122°
2026-04-20 02:59 25.25819 55.35858 27 ft 22 kts 122°
2026-04-20 02:59 25.25733 55.36012 27 ft 25 kts 122°
2026-04-20 02:59 25.25641 55.36175 27 ft 25 kts 122°
2026-04-20 03:00 25.25549 55.36338 27 ft 25 kts 122°
2026-04-20 03:00 25.25458 55.36501 27 ft 25 kts 122°
2026-04-20 03:00 25.25366 55.36664 31 ft 25 kts 122°
2026-04-20 03:00 25.25275 55.36827 26 ft 25 kts 122°
2026-04-20 03:01 25.25183 55.36989 27 ft 25 kts 122°
2026-04-20 03:01 25.25091 55.37152 28 ft 25 kts 122°
2026-04-20 03:01 25.25000 55.37315 28 ft 25 kts 122°
2026-04-20 03:01 25.24908 55.37477 28 ft 25 kts 122°
2026-04-20 03:02 25.24820 55.37634 27 ft 21 kts 122°
2026-04-20 03:02 25.24772 55.37720 27 ft 7 kts 121°
2026-04-20 03:02 25.24766 55.37731 27 ft 0 kts 122°
2026-04-20 03:04 25.24765 55.37733 27 ft 1 kts 122°
2026-04-20 03:04 25.24757 55.37746 27 ft 4 kts 122°
2026-04-20 03:04 25.24734 55.37787 27 ft 7 kts 122°
2026-04-20 03:04 25.24708 55.37834 27 ft 7 kts 122°
2026-04-20 03:05 25.24681 55.37881 27 ft 7 kts 122°
2026-04-20 03:05 25.24663 55.37931 27 ft 7 kts 89°
2026-04-20 03:05 25.24691 55.37974 28 ft 7 kts 32°
2026-04-20 03:05 25.24734 55.38003 29 ft 7 kts 31°
2026-04-20 03:06 25.24778 55.38031 30 ft 7 kts 26°
2026-04-20 03:06 25.24815 55.38008 30 ft 2 kts 301°
2026-04-20 03:06 25.24816 55.38008 30 ft 0 kts 301°
2026-04-20 03:07 25.24829 55.37983 30 ft 14 kts 302°
2026-04-20 03:07 25.25008 55.37662 30 ft 89 kts 301°
2026-04-20 03:07 25.25463 55.36844 27 ft 163 kts 301°
2026-04-20 03:08 25.26160 55.35569 195 ft 212 kts 300°
2026-04-20 03:08 25.26925 55.34162 983 ft 216 kts 301°
2026-04-20 03:08 25.27723 55.32730 1828 ft 222 kts 301°
2026-04-20 03:08 25.28542 55.31268 2404 ft 226 kts 301°
2026-04-20 03:09 25.29170 55.29686 2690 ft 229 kts 276°
2026-04-20 03:09 25.28907 55.27931 2974 ft 233 kts 248°
2026-04-20 03:09 25.28215 55.26324 3291 ft 236 kts 246°
2026-04-20 03:09 25.27513 55.24668 3665 ft 239 kts 248°
2026-04-20 03:10 25.26807 55.23002 4062 ft 240 kts 248°
2026-04-20 03:10 25.26095 55.21325 4420 ft 244 kts 248°
2026-04-20 03:10 25.25367 55.19608 4765 ft 250 kts 248°
2026-04-20 03:10 25.24521 55.17909 5070 ft 257 kts 230°
2026-04-20 03:11 25.23025 55.16814 5375 ft 266 kts 195°
2026-04-20 03:11 25.21172 55.16730 5732 ft 273 kts 168°
2026-04-20 03:11 25.19408 55.17568 5979 ft 282 kts 141°
2026-04-20 03:11 25.18090 55.19200 6085 ft 291 kts 120°
2026-04-20 03:12 25.17027 55.21170 6268 ft 308 kts 118°
2026-04-20 03:12 25.15936 55.23262 6420 ft 327 kts 118°
2026-04-20 03:12 25.14773 55.25508 6586 ft 347 kts 118°
2026-04-20 03:12 25.13541 55.27875 6805 ft 363 kts 118°
2026-04-20 03:13 25.12259 55.30319 7248 ft 372 kts 119°
2026-04-20 03:13 25.10944 55.32809 7758 ft 379 kts 119°
2026-04-20 03:13 25.09606 55.35330 8388 ft 382 kts 119°
2026-04-20 03:13 25.08255 55.37865 9030 ft 385 kts 119°
2026-04-20 03:14 25.06893 55.40417 9639 ft 389 kts 119°
2026-04-20 03:14 25.05513 55.42998 10177 ft 393 kts 119°
2026-04-20 03:14 25.04119 55.45604 10759 ft 395 kts 119°
2026-04-20 03:14 25.02718 55.48220 11374 ft 396 kts 119°
2026-04-20 03:15 25.01313 55.50844 11958 ft 400 kts 119°
2026-04-20 03:15 24.99897 55.53486 11993 ft 402 kts 118°
2026-04-20 03:15 24.98481 55.56127 12023 ft 400 kts 118°
2026-04-20 03:15 24.97065 55.58764 12004 ft 399 kts 118°
2026-04-20 03:16 24.95654 55.61394 12026 ft 399 kts 119°
2026-04-20 03:16 24.94242 55.64023 12024 ft 399 kts 119°
2026-04-20 03:16 24.92826 55.66659 12008 ft 400 kts 119°
2026-04-20 03:16 24.91407 55.69298 12029 ft 400 kts 119°
2026-04-20 03:17 24.89990 55.71933 12032 ft 400 kts 119°
2026-04-20 03:17 24.88566 55.74578 12022 ft 401 kts 119°
2026-04-20 03:17 24.87138 55.77231 12292 ft 405 kts 119°
2026-04-20 03:17 24.85703 55.79896 12963 ft 404 kts 119°
2026-04-20 03:18 24.84270 55.82554 13619 ft 405 kts 119°
2026-04-20 03:18 24.82828 55.85228 14124 ft 407 kts 119°
2026-04-20 03:18 24.81380 55.87912 14583 ft 411 kts 119°
2026-04-20 03:18 24.79812 55.90547 14966 ft 413 kts 130°
2026-04-20 03:19 24.77558 55.92543 15257 ft 422 kts 153°
2026-04-20 03:19 24.74790 55.93608 15758 ft 424 kts 170°
2026-04-20 03:19 24.71891 55.93781 16260 ft 424 kts 183°
2026-04-20 03:19 24.68939 55.93612 16724 ft 427 kts 183°
2026-04-20 03:20 24.65965 55.93474 17165 ft 430 kts 182°
2026-04-20 03:20 24.62974 55.93302 17585 ft 431 kts 188°
2026-04-20 03:20 24.60069 55.92474 17940 ft 435 kts 203°
2026-04-20 03:20 24.57408 55.90902 18355 ft 435 kts 216°
2026-04-20 03:21 24.55093 55.88773 18733 ft 434 kts 223°
2026-04-20 03:21 24.52851 55.86546 19102 ft 437 kts 223°
2026-04-20 03:21 24.50586 55.84307 19532 ft 438 kts 223°
2026-04-20 03:21 24.48309 55.82081 19969 ft 439 kts 223°
2026-04-20 03:22 24.46017 55.79863 20428 ft 440 kts 222°
2026-04-20 03:22 24.43709 55.77644 20846 ft 442 kts 222°
2026-04-20 03:22 24.41390 55.75420 21259 ft 443 kts 222°
2026-04-20 03:22 24.39064 55.73192 21659 ft 445 kts 222°
2026-04-20 03:23 24.36722 55.70948 22066 ft 447 kts 223°
2026-04-20 03:23 24.34381 55.68691 22466 ft 449 kts 223°
2026-04-20 03:23 24.32038 55.66426 22867 ft 451 kts 223°
2026-04-20 03:23 24.29680 55.64149 23248 ft 453 kts 223°
2026-04-20 03:24 24.27321 55.61857 23586 ft 454 kts 224°
2026-04-20 03:24 24.25097 55.59385 23869 ft 456 kts 230°
2026-04-20 03:24 24.23774 55.57606 24041 ft 456 kts 234°
2026-04-20 03:24 24.21864 55.54817 24334 ft 458 kts 234°
2026-04-20 03:25 24.19938 55.52023 24613 ft 460 kts 234°
2026-04-20 03:25 24.17317 55.48299 24975 ft 463 kts 232°
2026-04-20 03:25 24.15894 55.46547 25100 ft 467 kts 224°
2026-04-20 03:25 24.13328 55.44353 25324 ft 472 kts 213°
2026-04-20 03:26 24.10408 55.42699 25631 ft 474 kts 202°
2026-04-20 03:26 24.06199 55.41348 26017 ft 477 kts 195°
2026-04-20 03:26 24.04016 55.40750 26204 ft 479 kts 195°
2026-04-20 03:26 24.00788 55.39856 26471 ft 481 kts 195°
2026-04-20 03:27 23.97595 55.38940 26734 ft 483 kts 196°
2026-04-20 03:27 23.94353 55.37979 27006 ft 484 kts 196°
2026-04-20 03:27 23.91099 55.37004 27294 ft 486 kts 196°
2026-04-20 03:27 23.87829 55.36034 27560 ft 488 kts 196°
2026-04-20 03:28 23.84533 55.35088 27782 ft 491 kts 195°
2026-04-20 03:28 23.81214 55.34143 27842 ft 494 kts 195°
2026-04-20 03:28 23.74889 55.31316 27879 ft 498 kts 220°
2026-04-20 03:29 23.72493 55.28590 27883 ft 500 kts 236°
2026-04-20 03:29 23.70818 55.25325 27884 ft 501 kts 249°
2026-04-20 03:29 23.69872 55.21653 27866 ft 496 kts 263°
2026-04-20 03:29 23.69446 55.17967 27883 ft 496 kts 264°
2026-04-20 03:30 23.69056 55.14229 27872 ft 496 kts 264°
2026-04-20 03:30 23.68658 55.10492 27875 ft 497 kts 264°
2026-04-20 03:30 23.68236 55.06744 27873 ft 497 kts 263°
2026-04-20 03:30 23.67792 55.03011 27870 ft 497 kts 263°
2026-04-20 03:31 23.67393 54.99770 27869 ft 497 kts 263°
2026-04-20 03:31 23.66931 54.96095 27874 ft 495 kts 263°
2026-04-20 03:31 23.66459 54.92365 27869 ft 494 kts 263°
2026-04-20 03:31 23.65989 54.88651 27866 ft 493 kts 263°
2026-04-20 03:32 23.65520 54.84953 27865 ft 492 kts 263°
2026-04-20 03:32 23.65054 54.81264 27868 ft 491 kts 263°
2026-04-20 03:32 23.64587 54.77576 27868 ft 490 kts 263°
2026-04-20 03:32 23.64122 54.73897 27865 ft 490 kts 263°
2026-04-20 03:33 23.63655 54.70221 27869 ft 489 kts 263°
2026-04-20 03:33 23.63189 54.66550 27869 ft 489 kts 263°
2026-04-20 03:33 23.62720 54.62874 27871 ft 489 kts 263°
2026-04-20 03:33 23.62252 54.59190 27872 ft 490 kts 263°
2026-04-20 03:34 23.61785 54.55513 27872 ft 490 kts 263°
2026-04-20 03:34 23.61318 54.51828 27870 ft 490 kts 263°
2026-04-20 03:34 23.60824 54.48153 27869 ft 491 kts 260°
2026-04-20 03:34 23.60127 54.44502 27860 ft 491 kts 258°
2026-04-20 03:35 23.59337 54.40876 27865 ft 491 kts 257°
2026-04-20 03:35 23.58517 54.37263 27872 ft 491 kts 257°
2026-04-20 03:35 23.57693 54.33652 27870 ft 491 kts 257°
2026-04-20 03:35 23.56877 54.30032 27868 ft 491 kts 257°
2026-04-20 03:36 23.56074 54.26415 27865 ft 491 kts 257°
2026-04-20 03:36 23.55280 54.22796 27866 ft 491 kts 257°
2026-04-20 03:36 23.54493 54.19180 27868 ft 491 kts 257°
2026-04-20 03:36 23.53705 54.15552 27870 ft 491 kts 258°
2026-04-20 03:37 23.52918 54.11931 27866 ft 491 kts 257°
2026-04-20 03:37 23.52131 54.08309 27869 ft 491 kts 257°
2026-04-20 03:37 23.51352 54.04734 27867 ft 491 kts 257°
2026-04-20 03:37 23.50562 54.01116 27868 ft 491 kts 257°
2026-04-20 03:38 23.49815 53.97701 27867 ft 491 kts 258°
2026-04-20 03:38 23.49032 53.94123 27866 ft 491 kts 258°
2026-04-20 03:38 23.48238 53.90504 27872 ft 492 kts 258°
2026-04-20 03:38 23.47442 53.86878 27868 ft 492 kts 258°
2026-04-20 03:39 23.46647 53.83262 27873 ft 492 kts 258°
2026-04-20 03:39 23.45850 53.79637 27872 ft 492 kts 258°
2026-04-20 03:39 23.45050 53.76009 27867 ft 492 kts 258°
2026-04-20 03:39 23.44250 53.72383 27866 ft 493 kts 258°
2026-04-20 03:40 23.43449 53.68757 27866 ft 493 kts 258°
2026-04-20 03:40 23.42648 53.65132 27868 ft 493 kts 258°
2026-04-20 03:40 23.41846 53.61507 27869 ft 493 kts 258°
2026-04-20 03:40 23.41042 53.57876 27869 ft 493 kts 258°
2026-04-20 03:41 23.40237 53.54249 27870 ft 493 kts 258°
2026-04-20 03:41 23.39430 53.50614 27869 ft 493 kts 258°
2026-04-20 03:41 23.38624 53.46993 27867 ft 493 kts 258°
2026-04-20 03:41 23.37816 53.43361 27867 ft 493 kts 258°
2026-04-20 03:42 23.37007 53.39735 27868 ft 493 kts 258°
2026-04-20 03:42 23.36198 53.36108 27867 ft 493 kts 258°
2026-04-20 03:42 23.35388 53.32483 27864 ft 493 kts 258°
2026-04-20 03:42 23.34578 53.28860 27866 ft 493 kts 258°
2026-04-20 03:43 23.33769 53.25245 27863 ft 493 kts 258°
2026-04-20 03:43 23.32956 53.21619 27862 ft 492 kts 258°
2026-04-20 03:43 23.32143 53.18000 27865 ft 492 kts 258°
2026-04-20 03:43 23.31330 53.14381 27862 ft 492 kts 258°
2026-04-20 03:44 23.30529 53.10818 27862 ft 492 kts 258°
2026-04-20 03:44 23.29704 53.07153 27860 ft 492 kts 258°
2026-04-20 03:44 23.28891 53.03546 27863 ft 492 kts 258°
2026-04-20 03:44 23.28081 52.99958 27861 ft 491 kts 258°
2026-04-20 03:45 23.27321 52.96593 27864 ft 491 kts 258°
2026-04-20 03:45 23.26517 52.93041 27860 ft 491 kts 258°
2026-04-20 03:45 23.25702 52.89439 27858 ft 490 kts 258°
2026-04-20 03:45 23.24886 52.85842 27861 ft 490 kts 258°
2026-04-20 03:46 23.24071 52.82250 27857 ft 490 kts 258°
2026-04-20 03:46 23.23254 52.78653 27857 ft 490 kts 258°
2026-04-20 03:46 23.22437 52.75060 27857 ft 489 kts 258°
2026-04-20 03:46 23.21618 52.71466 27860 ft 489 kts 258°
2026-04-20 03:47 23.20801 52.67884 27856 ft 489 kts 258°
2026-04-20 03:47 23.19984 52.64300 27854 ft 488 kts 258°
2026-04-20 03:47 23.19164 52.60711 27852 ft 488 kts 258°
2026-04-20 03:47 23.18348 52.57144 27858 ft 488 kts 258°
2026-04-20 03:48 23.17527 52.53557 27855 ft 488 kts 258°
2026-04-20 03:48 23.16706 52.49972 27855 ft 487 kts 258°
2026-04-20 03:48 23.15889 52.46410 27856 ft 487 kts 258°
2026-04-20 03:48 23.15069 52.42842 27853 ft 487 kts 258°
2026-04-20 03:49 23.14190 52.39292 27844 ft 487 kts 254°
2026-04-20 03:49 23.13120 52.35793 27844 ft 487 kts 252°
2026-04-20 03:49 23.11986 52.32322 27852 ft 487 kts 252°
2026-04-20 03:49 23.10841 52.28871 27854 ft 487 kts 252°
2026-04-20 03:50 23.09699 52.25402 27856 ft 487 kts 252°
2026-04-20 03:50 23.08571 52.21933 27859 ft 487 kts 252°
2026-04-20 03:50 23.07454 52.18461 27855 ft 487 kts 252°
2026-04-20 03:50 23.06343 52.14990 27854 ft 487 kts 252°
2026-04-20 03:51 23.05236 52.11530 27852 ft 487 kts 252°
2026-04-20 03:51 23.04122 52.08053 27856 ft 487 kts 252°
2026-04-20 03:51 23.03008 52.04580 27851 ft 487 kts 252°
2026-04-20 03:51 23.01890 52.01105 27856 ft 487 kts 252°
2026-04-20 03:52 23.00851 51.97869 27852 ft 487 kts 253°
2026-04-20 03:52 22.99744 51.94416 27856 ft 487 kts 253°
2026-04-20 03:52 22.98633 51.90945 27854 ft 486 kts 253°
2026-04-20 03:52 22.97525 51.87481 27853 ft 486 kts 253°
2026-04-20 03:53 22.96429 51.84060 27858 ft 486 kts 253°
2026-04-20 03:53 22.95319 51.80596 27856 ft 486 kts 253°
2026-04-20 03:53 22.94206 51.77131 27886 ft 486 kts 253°
2026-04-20 03:53 22.93097 51.73680 28000 ft 484 kts 253°
2026-04-20 03:54 22.91988 51.70233 28143 ft 484 kts 253°
2026-04-20 03:54 22.90878 51.66781 28260 ft 485 kts 253°
2026-04-20 03:54 22.89765 51.63328 28373 ft 485 kts 253°
2026-04-20 03:54 22.88653 51.59876 28520 ft 485 kts 253°
2026-04-20 03:55 22.87542 51.56432 28647 ft 485 kts 253°
2026-04-20 03:55 22.86426 51.52978 28785 ft 484 kts 254°
2026-04-20 03:55 22.85474 51.49497 28907 ft 480 kts 261°
2026-04-20 03:55 22.84924 51.45936 29036 ft 477 kts 266°
2026-04-20 03:56 22.84663 51.42372 29165 ft 474 kts 270°
2026-04-20 03:56 22.84724 51.38814 29287 ft 471 kts 276°
2026-04-20 03:56 22.84987 51.35282 29432 ft 470 kts 277°
2026-04-20 03:56 22.85265 51.31757 29554 ft 469 kts 277°
2026-04-20 03:57 22.85535 51.28234 29687 ft 468 kts 277°
2026-04-20 03:57 22.85790 51.24721 29768 ft 467 kts 276°
2026-04-20 03:57 22.86270 51.17707 29847 ft 467 kts 276°
2026-04-20 03:58 22.86743 51.10682 29852 ft 466 kts 276°
2026-04-20 03:58 22.87215 51.03674 29860 ft 466 kts 276°
2026-04-20 03:59 22.87669 50.96912 29853 ft 466 kts 276°
2026-04-20 03:59 22.88135 50.89901 29854 ft 466 kts 276°
2026-04-20 04:00 22.88598 50.82903 29862 ft 466 kts 276°
2026-04-20 04:00 22.89058 50.75891 29858 ft 465 kts 276°
2026-04-20 04:01 22.89514 50.68897 29856 ft 465 kts 276°
2026-04-20 04:01 22.89967 50.61906 29852 ft 465 kts 276°
2026-04-20 04:02 22.90417 50.54904 29858 ft 464 kts 276°
2026-04-20 04:02 22.90863 50.47930 29852 ft 463 kts 276°
2026-04-20 04:03 22.91301 50.41018 29850 ft 462 kts 276°
2026-04-20 04:03 22.91739 50.34069 29850 ft 461 kts 276°
2026-04-20 04:04 22.92174 50.27129 29851 ft 462 kts 276°
2026-04-20 04:04 22.92606 50.20178 29846 ft 462 kts 276°
2026-04-20 04:05 22.93035 50.13212 29845 ft 463 kts 276°
2026-04-20 04:05 22.93463 50.06232 29851 ft 464 kts 276°
2026-04-20 04:06 22.93875 49.99463 29848 ft 465 kts 276°
2026-04-20 04:06 22.94297 49.92461 29848 ft 465 kts 276°
2026-04-20 04:07 22.94716 49.85467 29848 ft 464 kts 275°
2026-04-20 04:07 22.95131 49.78486 29841 ft 463 kts 275°
2026-04-20 04:08 22.95542 49.71532 29841 ft 461 kts 275°
2026-04-20 04:08 22.95949 49.64586 29849 ft 461 kts 275°
2026-04-20 04:09 22.96353 49.57650 29842 ft 461 kts 275°
2026-04-20 04:09 22.96751 49.50755 29838 ft 461 kts 275°
2026-04-20 04:10 22.97150 49.43801 29847 ft 462 kts 275°
2026-04-20 04:10 22.97546 49.36827 29849 ft 463 kts 275°
2026-04-20 04:11 22.97940 49.29852 29832 ft 464 kts 275°
2026-04-20 04:11 22.98331 49.22856 29854 ft 464 kts 275°
2026-04-20 04:12 22.98720 49.15858 29847 ft 464 kts 275°
2026-04-20 04:12 22.99105 49.08870 29844 ft 464 kts 275°
2026-04-20 04:13 22.99488 49.01876 29837 ft 463 kts 275°
2026-04-20 04:13 22.99829 48.96333 29838 ft 463 kts 276°
2026-04-20 04:14 23.00401 48.89374 29848 ft 463 kts 277°
2026-04-20 04:14 23.00991 48.82424 29846 ft 463 kts 276°
2026-04-20 04:15 23.01560 48.75466 29845 ft 463 kts 276°
2026-04-20 04:15 23.02115 48.68502 29852 ft 463 kts 276°
2026-04-20 04:16 23.02665 48.61535 29852 ft 463 kts 276°
2026-04-20 04:16 23.03211 48.54574 29853 ft 463 kts 276°
2026-04-20 04:17 23.03754 48.47619 29849 ft 462 kts 276°
2026-04-20 04:17 23.04293 48.40689 29850 ft 461 kts 276°
2026-04-20 04:18 23.04828 48.33764 29855 ft 460 kts 276°
2026-04-20 04:18 23.05360 48.26842 29855 ft 460 kts 276°
2026-04-20 04:19 23.05889 48.19924 29856 ft 460 kts 275°
2026-04-20 04:19 23.06415 48.12998 29860 ft 460 kts 275°
2026-04-20 04:20 23.06921 48.06300 29864 ft 460 kts 275°
2026-04-20 04:20 23.07419 47.99667 29863 ft 461 kts 275°
2026-04-20 04:21 23.07936 47.92738 29867 ft 460 kts 275°
2026-04-20 04:21 23.08450 47.85822 29876 ft 459 kts 275°
2026-04-20 04:22 23.09835 47.79150 29878 ft 457 kts 297°
2026-04-20 04:22 23.13776 47.73732 29866 ft 465 kts 318°
2026-04-20 04:23 23.19271 47.69965 29875 ft 469 kts 325°
2026-04-20 04:23 23.24880 47.66310 29888 ft 472 kts 324°
2026-04-20 04:24 23.30486 47.62553 29908 ft 474 kts 324°
2026-04-20 04:24 23.36089 47.58752 29908 ft 475 kts 323°
2026-04-20 04:25 23.41623 47.54999 29905 ft 464 kts 323°
2026-04-20 04:25 23.47136 47.51253 29918 ft 470 kts 323°
2026-04-20 04:26 23.52720 47.47461 29927 ft 475 kts 323°
2026-04-20 04:26 23.58352 47.43636 29919 ft 478 kts 323°
2026-04-20 04:27 23.63993 47.39802 29918 ft 477 kts 323°
2026-04-20 04:27 23.69603 47.35984 29925 ft 474 kts 323°
2026-04-20 04:28 23.74626 47.32561 29920 ft 471 kts 323°
2026-04-20 04:28 23.80121 47.28811 29936 ft 467 kts 323°
2026-04-20 04:29 23.85640 47.25040 29930 ft 469 kts 323°
2026-04-20 04:29 23.91197 47.21238 29937 ft 472 kts 323°
2026-04-20 04:30 23.96782 47.17414 29937 ft 476 kts 323°
2026-04-20 04:30 24.02388 47.13575 29942 ft 475 kts 323°
2026-04-20 04:31 24.07976 47.09743 29933 ft 473 kts 323°
2026-04-20 04:31 24.13733 47.06222 29913 ft 477 kts 331°
2026-04-20 04:32 24.19848 47.03416 29931 ft 477 kts 332°
2026-04-20 04:32 24.25987 47.00610 29954 ft 478 kts 332°
2026-04-20 04:33 24.31901 46.97873 29954 ft 480 kts 332°
2026-04-20 04:33 24.38065 46.95002 29972 ft 480 kts 332°
2026-04-20 04:34 24.44175 46.92149 29966 ft 481 kts 332°
2026-04-20 04:34 24.50331 46.89275 29968 ft 481 kts 332°
2026-04-20 04:35 24.56491 46.86395 29958 ft 481 kts 332°
2026-04-20 04:35 24.62649 46.83513 29959 ft 482 kts 332°
2026-04-20 04:36 24.71913 46.79172 29983 ft 483 kts 332°
2026-04-20 04:37 24.78104 46.76267 29997 ft 484 kts 332°
2026-04-20 04:37 24.84294 46.73359 29997 ft 484 kts 332°
2026-04-20 04:38 24.90480 46.70450 29998 ft 484 kts 332°
2026-04-20 04:38 24.96526 46.67252 30002 ft 478 kts 324°
2026-04-20 04:39 25.01891 46.63049 29997 ft 472 kts 315°
2026-04-20 04:39 25.06696 46.58161 29999 ft 470 kts 313°
2026-04-20 04:40 25.11461 46.53225 29983 ft 469 kts 313°
2026-04-20 04:40 25.16239 46.48308 29991 ft 470 kts 314°
2026-04-20 04:41 25.21027 46.43403 29986 ft 470 kts 314°
2026-04-20 04:41 25.25826 46.38487 29987 ft 471 kts 314°
2026-04-20 04:42 25.30600 46.33590 30000 ft 471 kts 314°
2026-04-20 04:42 25.35412 46.28647 29990 ft 472 kts 314°
2026-04-20 04:43 25.40218 46.23705 29985 ft 473 kts 314°
2026-04-20 04:43 25.45029 46.18752 29985 ft 473 kts 314°
2026-04-20 04:44 25.49844 46.13789 29992 ft 473 kts 313°
2026-04-20 04:44 25.54658 46.08820 29985 ft 473 kts 313°
2026-04-20 04:45 25.59464 46.03855 29985 ft 473 kts 313°
2026-04-20 04:45 25.64128 45.99032 30000 ft 472 kts 313°
2026-04-20 04:46 25.68929 45.94063 29993 ft 472 kts 313°
2026-04-20 04:46 25.73718 45.89097 29992 ft 471 kts 313°
2026-04-20 04:47 25.78499 45.84133 30003 ft 471 kts 313°
2026-04-20 04:47 25.83285 45.79160 29985 ft 471 kts 313°
2026-04-20 04:48 25.88065 45.74186 30018 ft 471 kts 313°
2026-04-20 04:48 25.92850 45.69204 30015 ft 471 kts 313°
2026-04-20 04:49 25.97628 45.64220 30003 ft 471 kts 313°
2026-04-20 04:49 26.02397 45.59239 30027 ft 471 kts 313°
2026-04-20 04:50 26.07171 45.54247 30015 ft 472 kts 313°
2026-04-20 04:50 26.11951 45.49242 30025 ft 472 kts 313°
2026-04-20 04:51 26.16732 45.44232 30016 ft 472 kts 313°
2026-04-20 04:51 26.21511 45.39219 30015 ft 472 kts 313°
2026-04-20 04:52 26.26298 45.34193 30026 ft 473 kts 313°
2026-04-20 04:52 26.31079 45.29168 30022 ft 473 kts 313°
2026-04-20 04:53 26.35849 45.24167 30012 ft 474 kts 313°
2026-04-20 04:53 26.40651 45.19133 30018 ft 474 kts 313°
2026-04-20 04:54 26.45457 45.14084 30013 ft 475 kts 313°
2026-04-20 04:54 26.50271 45.09019 30011 ft 476 kts 313°
2026-04-20 04:55 26.55094 45.03938 30004 ft 477 kts 313°
2026-04-20 04:55 26.59779 44.98999 30001 ft 478 kts 312°
2026-04-20 04:56 26.64622 44.93890 30004 ft 479 kts 312°
2026-04-20 04:56 26.69466 44.88773 29998 ft 479 kts 312°
2026-04-20 04:57 26.74308 44.83652 29993 ft 480 kts 312°
2026-04-20 04:57 26.79156 44.78517 29993 ft 479 kts 312°
2026-04-20 04:58 26.83779 44.73607 29990 ft 479 kts 312°
2026-04-20 04:58 26.88604 44.68473 29981 ft 478 kts 312°
2026-04-20 04:59 26.93212 44.63150 29979 ft 471 kts 302°
2026-04-20 04:59 26.96272 44.56789 29992 ft 461 kts 288°
2026-04-20 05:00 26.98453 44.50029 29981 ft 461 kts 285°
2026-04-20 05:00 27.00182 44.44388 29975 ft 462 kts 285°
2026-04-20 05:01 27.02255 44.37568 29978 ft 464 kts 285°
2026-04-20 05:01 27.04335 44.30704 29980 ft 466 kts 286°
2026-04-20 05:02 27.07075 44.24055 29983 ft 472 kts 293°
2026-04-20 05:02 27.10194 44.17543 29984 ft 474 kts 294°
2026-04-20 05:03 27.13347 44.11049 29966 ft 473 kts 294°
2026-04-20 05:03 27.16497 44.04593 29957 ft 471 kts 294°
2026-04-20 05:04 27.19638 43.98439 29953 ft 470 kts 300°
2026-04-20 05:04 27.23823 43.92785 29954 ft 470 kts 307°
2026-04-20 05:05 27.28603 43.87758 29976 ft 475 kts 315°
2026-04-20 05:05 27.33873 43.83203 29964 ft 480 kts 316°
2026-04-20 05:06 27.39217 43.78670 29949 ft 479 kts 315°
2026-04-20 05:06 27.44500 43.74118 29945 ft 478 kts 315°
2026-04-20 05:07 27.49749 43.69542 29954 ft 478 kts 315°
2026-04-20 05:07 27.55009 43.64937 29950 ft 480 kts 314°
2026-04-20 05:08 27.60289 43.60308 29947 ft 482 kts 314°
2026-04-20 05:08 27.65571 43.55677 29938 ft 485 kts 314°
2026-04-20 05:09 27.70905 43.50997 29943 ft 487 kts 314°
2026-04-20 05:09 27.76253 43.46300 29939 ft 487 kts 314°
2026-04-20 05:10 27.81594 43.41603 29942 ft 487 kts 314°
2026-04-20 05:10 27.86927 43.36907 29939 ft 485 kts 314°
2026-04-20 05:11 27.92245 43.32217 29939 ft 484 kts 314°
2026-04-20 05:11 27.97540 43.27541 29944 ft 483 kts 314°
2026-04-20 05:12 28.02817 43.22874 29940 ft 482 kts 314°
2026-04-20 05:12 28.08103 43.18193 29931 ft 482 kts 314°
2026-04-20 05:13 28.13389 43.13506 29947 ft 482 kts 314°
2026-04-20 05:13 28.18672 43.08816 29944 ft 483 kts 313°
2026-04-20 05:14 28.23971 43.04105 29935 ft 484 kts 313°
2026-04-20 05:14 28.29082 42.99557 29947 ft 484 kts 313°
2026-04-20 05:15 28.34374 42.94841 29932 ft 484 kts 312°
2026-04-20 05:15 28.39622 42.90159 29926 ft 483 kts 312°
2026-04-20 05:16 28.44902 42.85441 29916 ft 482 kts 312°
2026-04-20 05:16 28.50175 42.80724 29942 ft 482 kts 312°
2026-04-20 05:17 28.55441 42.76005 29921 ft 482 kts 312°
2026-04-20 05:17 28.60715 42.71273 29898 ft 483 kts 312°
2026-04-20 05:18 28.65803 42.66359 29920 ft 473 kts 304°
2026-04-20 05:18 28.70227 42.60880 29920 ft 470 kts 303°
2026-04-20 05:19 28.74641 42.55354 29908 ft 471 kts 303°
2026-04-20 05:19 28.79073 42.49852 29904 ft 472 kts 303°
2026-04-20 05:20 28.83519 42.44352 29912 ft 472 kts 303°
2026-04-20 05:20 28.87967 42.38843 29947 ft 472 kts 304°
2026-04-20 05:21 28.92381 42.33367 29897 ft 471 kts 304°
2026-04-20 05:21 28.96828 42.27843 29894 ft 468 kts 304°
2026-04-20 05:22 29.01176 42.22431 29894 ft 466 kts 304°
2026-04-20 05:22 29.05557 42.16973 29907 ft 465 kts 303°
2026-04-20 05:23 29.09921 42.11531 29897 ft 464 kts 303°
2026-04-20 05:23 29.14278 42.06088 29892 ft 464 kts 303°
2026-04-20 05:24 29.18639 42.00630 29896 ft 464 kts 303°
2026-04-20 05:24 29.22855 41.95347 29908 ft 465 kts 303°
2026-04-20 05:25 29.27209 41.89887 29908 ft 463 kts 303°
2026-04-20 05:25 29.31552 41.84433 29912 ft 462 kts 303°
2026-04-20 05:26 29.35875 41.78995 29915 ft 461 kts 303°
2026-04-20 05:26 29.40187 41.73564 29918 ft 460 kts 303°
2026-04-20 05:27 29.44324 41.68346 29911 ft 458 kts 302°
2026-04-20 05:27 29.48608 41.62935 29917 ft 457 kts 302°
2026-04-20 05:28 29.52870 41.57544 29930 ft 456 kts 302°
2026-04-20 05:28 29.57139 41.52135 29929 ft 457 kts 302°
2026-04-20 05:29 29.61400 41.46731 29926 ft 456 kts 302°
2026-04-20 05:29 29.65659 41.41321 29937 ft 456 kts 302°
2026-04-20 05:30 29.69908 41.35918 29938 ft 456 kts 302°
2026-04-20 05:30 29.74198 41.30538 29931 ft 460 kts 305°
2026-04-20 05:31 29.78990 41.25561 29934 ft 464 kts 308°
2026-04-20 05:31 29.83822 41.20658 29944 ft 463 kts 308°
2026-04-20 05:32 29.88634 41.15737 29939 ft 462 kts 308°
2026-04-20 05:32 29.93430 41.10805 29964 ft 463 kts 308°
2026-04-20 05:33 29.98226 41.05860 29952 ft 462 kts 308°
2026-04-20 05:33 30.03018 41.00915 29939 ft 462 kts 308°
2026-04-20 05:34 30.07618 40.96163 29972 ft 462 kts 308°
2026-04-20 05:34 30.14803 40.88726 29947 ft 463 kts 308°
2026-04-20 05:35 30.19593 40.83760 29940 ft 463 kts 308°
2026-04-20 05:35 30.24387 40.78785 29937 ft 463 kts 308°
2026-04-20 05:36 30.29170 40.73812 29942 ft 462 kts 308°
2026-04-20 05:36 30.33793 40.69000 29934 ft 462 kts 308°
2026-04-20 05:37 30.38576 40.64014 29943 ft 462 kts 308°
2026-04-20 05:37 30.43392 40.59056 29967 ft 463 kts 308°
2026-04-20 05:38 30.48235 40.54113 29947 ft 464 kts 308°
2026-04-20 05:38 30.53073 40.49167 29941 ft 464 kts 308°
2026-04-20 05:39 30.57906 40.44207 29928 ft 464 kts 308°
2026-04-20 05:39 30.62729 40.39247 29930 ft 463 kts 308°
2026-04-20 05:40 30.67541 40.34292 29954 ft 462 kts 308°
2026-04-20 05:40 30.72346 40.29335 29933 ft 462 kts 308°
2026-04-20 05:41 30.77142 40.24382 30010 ft 461 kts 308°
2026-04-20 05:41 30.81941 40.19418 29953 ft 462 kts 308°
2026-04-20 05:42 30.86730 40.14460 29939 ft 460 kts 308°
2026-04-20 05:42 30.91502 40.09512 29934 ft 458 kts 308°
2026-04-20 05:43 30.96230 40.04603 29936 ft 458 kts 308°
2026-04-20 05:43 31.00863 39.99782 29951 ft 458 kts 308°
2026-04-20 05:44 31.05584 39.94865 29927 ft 458 kts 308°
2026-04-20 05:44 31.10338 39.89907 29929 ft 458 kts 308°
2026-04-20 05:45 31.15095 39.84938 29932 ft 460 kts 308°
2026-04-20 05:45 31.19061 39.80792 29939 ft 461 kts 308°
2026-04-20 05:46 31.24645 39.74944 29943 ft 462 kts 309°
2026-04-20 05:46 31.28625 39.70772 29926 ft 462 kts 309°
2026-04-20 05:47 31.33409 39.65749 29929 ft 462 kts 309°
2026-04-20 05:47 31.38192 39.60719 29929 ft 462 kts 309°
2026-04-20 05:48 31.42970 39.55689 29934 ft 462 kts 309°
2026-04-20 05:48 31.47746 39.50650 29927 ft 462 kts 309°
2026-04-20 05:49 31.52523 39.45598 29927 ft 462 kts 309°
2026-04-20 05:49 31.57297 39.40543 29926 ft 462 kts 309°
2026-04-20 05:50 31.62070 39.35482 29927 ft 463 kts 309°
2026-04-20 05:50 31.66843 39.30412 29937 ft 463 kts 309°
2026-04-20 05:51 31.71620 39.25331 29929 ft 463 kts 309°
2026-04-20 05:51 31.76397 39.20245 29934 ft 463 kts 309°
2026-04-20 05:52 31.81579 39.15599 29959 ft 475 kts 319°
2026-04-20 05:52 31.87473 39.11891 29969 ft 483 kts 325°
2026-04-20 05:53 31.93509 39.08411 29945 ft 483 kts 325°
2026-04-20 05:53 31.99507 39.04881 29941 ft 481 kts 324°
2026-04-20 05:54 32.05473 39.01346 29937 ft 481 kts 325°
2026-04-20 05:54 32.11287 38.97924 29941 ft 481 kts 325°
2026-04-20 05:55 32.17268 38.94402 29933 ft 480 kts 325°
2026-04-20 05:55 32.23203 38.90898 29935 ft 480 kts 325°
2026-04-20 05:56 32.29173 38.87366 29944 ft 480 kts 325°
2026-04-20 05:56 32.35141 38.83830 29933 ft 479 kts 325°
2026-04-20 05:57 32.41103 38.80292 29933 ft 479 kts 325°
2026-04-20 05:57 32.47067 38.76748 29929 ft 479 kts 325°
2026-04-20 05:58 32.53022 38.73204 29931 ft 479 kts 325°
2026-04-20 05:58 32.58977 38.69654 29925 ft 479 kts 325°
2026-04-20 05:59 32.64936 38.66102 29944 ft 480 kts 325°
2026-04-20 05:59 32.70913 38.62535 29931 ft 481 kts 325°
2026-04-20 06:00 32.76890 38.58964 29927 ft 481 kts 325°
2026-04-20 06:00 32.82858 38.55391 29928 ft 481 kts 325°
2026-04-20 06:01 32.88834 38.51807 29928 ft 481 kts 325°
2026-04-20 06:01 32.94808 38.48219 29923 ft 482 kts 325°
2026-04-20 06:02 33.00777 38.44631 29919 ft 481 kts 325°
2026-04-20 06:02 33.06755 38.41031 29924 ft 481 kts 325°
2026-04-20 06:03 33.12727 38.37429 29922 ft 481 kts 325°
2026-04-20 06:03 33.18681 38.33807 29936 ft 481 kts 325°
2026-04-20 06:04 33.24635 38.30165 29921 ft 481 kts 325°
2026-04-20 06:04 33.30596 38.26527 29922 ft 481 kts 325°
2026-04-20 06:05 33.36507 38.22914 29923 ft 481 kts 325°
2026-04-20 06:05 33.42463 38.19265 29925 ft 481 kts 325°
2026-04-20 06:06 33.48425 38.15616 29916 ft 482 kts 326°
2026-04-20 06:06 33.54406 38.11993 29913 ft 482 kts 326°
2026-04-20 06:07 33.60391 38.08365 29910 ft 481 kts 326°
2026-04-20 06:07 33.66362 38.04732 29911 ft 481 kts 326°
2026-04-20 06:08 33.72330 38.01092 29924 ft 481 kts 326°
2026-04-20 06:08 33.78141 37.97543 29906 ft 482 kts 326°
2026-04-20 06:09 33.84049 37.93781 29900 ft 475 kts 318°
2026-04-20 06:09 33.86618 37.91362 29910 ft 464 kts 309°
2026-04-20 06:09 33.88849 37.88591 29900 ft 458 kts 303°
2026-04-20 06:10 33.92365 37.82340 29912 ft 450 kts 295°
2026-04-20 06:10 33.95656 37.75902 29900 ft 452 kts 295°
2026-04-20 06:11 33.98960 37.69513 29927 ft 453 kts 295°
2026-04-20 06:11 34.02299 37.63095 29906 ft 453 kts 295°
2026-04-20 06:12 34.05637 37.56683 29903 ft 451 kts 295°
2026-04-20 06:12 34.08964 37.50274 29904 ft 450 kts 295°
2026-04-20 06:13 34.12284 37.43866 29942 ft 451 kts 295°
2026-04-20 06:13 34.15612 37.37429 29907 ft 452 kts 295°
2026-04-20 06:14 34.18905 37.30967 29899 ft 449 kts 291°
2026-04-20 06:14 34.21114 37.24036 29907 ft 438 kts 279°
2026-04-20 06:15 34.22143 37.16849 29910 ft 433 kts 271°
2026-04-20 06:15 34.22678 37.09573 29897 ft 435 kts 271°
2026-04-20 06:16 34.23222 37.02269 29889 ft 437 kts 271°
2026-04-20 06:16 34.23773 36.95144 29885 ft 439 kts 271°
2026-04-20 06:17 34.24346 36.87796 29880 ft 439 kts 271°
2026-04-20 06:17 34.24916 36.80442 29882 ft 439 kts 271°
2026-04-20 06:18 34.25478 36.73115 29914 ft 438 kts 271°
2026-04-20 06:18 34.26032 36.65834 29901 ft 438 kts 271°
2026-04-20 06:19 34.26586 36.58501 29885 ft 438 kts 271°
2026-04-20 06:19 34.26955 36.51170 29889 ft 436 kts 269°
2026-04-20 06:20 34.27178 36.43839 29905 ft 436 kts 269°
2026-04-20 06:20 34.27420 36.36503 29891 ft 437 kts 269°
2026-04-20 06:21 34.27683 36.29168 29897 ft 437 kts 269°
2026-04-20 06:21 34.27946 36.21822 29915 ft 437 kts 269°
2026-04-20 06:22 34.28206 36.14474 29909 ft 438 kts 269°
2026-04-20 06:22 34.28462 36.07112 29910 ft 438 kts 269°
2026-04-20 06:23 34.28708 35.99866 29906 ft 439 kts 269°
2026-04-20 06:23 34.29036 35.92567 29910 ft 440 kts 270°
2026-04-20 06:24 34.29401 35.85182 29903 ft 440 kts 270°
2026-04-20 06:24 34.29746 35.77804 29908 ft 439 kts 270°
2026-04-20 06:25 34.30382 35.70462 29919 ft 441 kts 277°
2026-04-20 06:25 34.31934 35.63268 29918 ft 444 kts 284°
2026-04-20 06:26 34.33938 35.56247 29916 ft 444 kts 285°
2026-04-20 06:26 34.35942 35.49191 29950 ft 444 kts 285°
2026-04-20 06:27 34.37928 35.42116 29925 ft 444 kts 285°
2026-04-20 06:27 34.39904 35.35032 29917 ft 444 kts 285°
2026-04-20 06:28 34.41876 35.27946 29919 ft 444 kts 285°
2026-04-20 06:28 34.43844 35.20855 29916 ft 444 kts 285°
2026-04-20 06:29 34.45812 35.13755 29912 ft 444 kts 285°
2026-04-20 06:29 34.48443 35.07007 29919 ft 451 kts 302°
2026-04-20 06:30 34.52933 35.01564 29935 ft 466 kts 321°
2026-04-20 06:30 34.58399 34.97660 29928 ft 471 kts 326°
2026-04-20 06:31 34.64118 34.93741 29906 ft 472 kts 325°
2026-04-20 06:31 34.69808 34.89768 29902 ft 471 kts 325°
2026-04-20 06:32 34.75462 34.85757 29901 ft 470 kts 324°
2026-04-20 06:32 34.80146 34.82415 29924 ft 469 kts 324°
2026-04-20 06:33 34.85784 34.78384 29904 ft 470 kts 325°
2026-04-20 06:33 34.91417 34.74354 29888 ft 470 kts 325°
2026-04-20 06:34 34.97969 34.69660 29888 ft 469 kts 326°
2026-04-20 06:35 35.05461 34.64284 29885 ft 467 kts 326°
2026-04-20 06:35 35.11066 34.60253 29894 ft 467 kts 326°
2026-04-20 06:36 35.16660 34.56224 29895 ft 467 kts 326°
2026-04-20 06:36 35.22255 34.52187 29893 ft 467 kts 326°
2026-04-20 06:37 35.27851 34.48143 29894 ft 467 kts 326°
2026-04-20 06:37 35.33404 34.44123 29896 ft 466 kts 327°
2026-04-20 06:38 35.39013 34.40058 29890 ft 465 kts 327°
2026-04-20 06:38 35.44532 34.36050 29888 ft 463 kts 327°
2026-04-20 06:39 35.50071 34.32021 29890 ft 463 kts 327°
2026-04-20 06:39 35.55603 34.27991 29890 ft 462 kts 327°
2026-04-20 06:40 35.61135 34.23953 29884 ft 463 kts 327°
2026-04-20 06:40 35.66670 34.19907 29890 ft 462 kts 328°
2026-04-20 06:41 35.72186 34.15869 29888 ft 461 kts 328°
2026-04-20 06:41 35.77696 34.11828 29887 ft 460 kts 328°
2026-04-20 06:42 35.83189 34.07794 29889 ft 459 kts 328°
2026-04-20 06:42 35.88578 34.03617 29879 ft 456 kts 319°
2026-04-20 06:43 35.92613 33.97911 29896 ft 457 kts 303°
2026-04-20 06:43 35.95271 33.90851 29898 ft 458 kts 293°
2026-04-20 06:44 35.97593 33.83505 29893 ft 460 kts 293°
2026-04-20 06:44 35.99953 33.76156 29892 ft 460 kts 294°
2026-04-20 06:45 36.02333 33.68842 29894 ft 460 kts 294°
2026-04-20 06:45 36.04721 33.61516 29890 ft 459 kts 295°
2026-04-20 06:46 36.07099 33.54203 29892 ft 458 kts 294°
2026-04-20 06:46 36.09469 33.46890 29909 ft 458 kts 294°
2026-04-20 06:47 36.11829 33.39586 29912 ft 457 kts 294°
2026-04-20 06:47 36.14187 33.32275 29894 ft 457 kts 294°
2026-04-20 06:48 36.16539 33.24961 29894 ft 458 kts 294°
2026-04-20 06:48 36.18889 33.17626 29916 ft 458 kts 294°
2026-04-20 06:49 36.21232 33.10296 29911 ft 458 kts 295°
2026-04-20 06:49 36.23575 33.02944 29919 ft 458 kts 295°
2026-04-20 06:50 36.25846 32.95805 29922 ft 458 kts 295°
2026-04-20 06:50 36.28178 32.88451 29912 ft 458 kts 294°
2026-04-20 06:51 36.30503 32.81103 29915 ft 457 kts 294°
2026-04-20 06:51 36.32816 32.73775 29922 ft 456 kts 294°
2026-04-20 06:52 36.35125 32.66451 29925 ft 456 kts 294°
2026-04-20 06:52 36.37439 32.59121 29907 ft 456 kts 294°
2026-04-20 06:53 36.39748 32.51783 29923 ft 457 kts 294°
2026-04-20 06:53 36.42054 32.44433 29923 ft 457 kts 294°
2026-04-20 06:54 36.44361 32.37060 29911 ft 458 kts 294°
2026-04-20 06:54 36.46660 32.29691 29916 ft 457 kts 294°
2026-04-20 06:55 36.48935 32.22384 29915 ft 455 kts 294°
2026-04-20 06:55 36.51209 32.15059 29922 ft 453 kts 294°
2026-04-20 06:56 36.53475 32.07740 29903 ft 454 kts 294°
2026-04-20 06:56 36.55734 32.00429 29902 ft 452 kts 294°
2026-04-20 06:57 36.57918 31.93344 29920 ft 451 kts 294°
2026-04-20 06:57 36.60159 31.86049 29911 ft 452 kts 294°
2026-04-20 06:58 36.62404 31.78727 29904 ft 453 kts 294°
2026-04-20 06:58 36.64649 31.71385 29914 ft 454 kts 294°
2026-04-20 06:59 36.66892 31.64031 29923 ft 455 kts 294°
2026-04-20 06:59 36.69159 31.56671 29919 ft 455 kts 295°
2026-04-20 07:00 36.71598 31.49405 29909 ft 454 kts 295°
2026-04-20 07:00 36.74037 31.42132 29920 ft 455 kts 295°
2026-04-20 07:01 36.76383 31.34791 29928 ft 456 kts 293°
2026-04-20 07:01 36.78498 31.27325 29935 ft 457 kts 292°
2026-04-20 07:02 36.80584 31.19888 29924 ft 457 kts 292°
2026-04-20 07:02 36.82711 31.12416 29938 ft 457 kts 292°
2026-04-20 07:03 36.84850 31.04933 29944 ft 458 kts 292°
2026-04-20 07:03 36.86926 30.97650 29943 ft 458 kts 292°
2026-04-20 07:04 36.89058 30.90148 29932 ft 458 kts 292°
2026-04-20 07:04 36.91186 30.82638 29933 ft 459 kts 292°
2026-04-20 07:05 36.93638 30.75306 29954 ft 457 kts 298°
2026-04-20 07:05 36.96469 30.68199 29934 ft 457 kts 298°
2026-04-20 07:06 36.99290 30.61073 29934 ft 457 kts 298°
2026-04-20 07:06 37.02085 30.53942 29945 ft 457 kts 298°
2026-04-20 07:07 37.04872 30.46792 29966 ft 457 kts 298°
2026-04-20 07:07 37.07654 30.39640 29966 ft 457 kts 298°
2026-04-20 07:08 37.10437 30.32472 29968 ft 457 kts 297°
2026-04-20 07:08 37.13213 30.25303 29974 ft 457 kts 297°
2026-04-20 07:09 37.15966 30.18179 29974 ft 457 kts 297°
2026-04-20 07:09 37.18732 30.11005 29967 ft 457 kts 297°
2026-04-20 07:10 37.21496 30.03821 29988 ft 458 kts 297°
2026-04-20 07:10 37.24216 29.96832 29999 ft 458 kts 298°
2026-04-20 07:11 37.27152 29.89725 29995 ft 459 kts 298°
2026-04-20 07:11 37.30091 29.82611 29993 ft 459 kts 298°
2026-04-20 07:12 37.33007 29.75477 30001 ft 459 kts 298°
2026-04-20 07:12 37.35880 29.68316 30002 ft 459 kts 297°
2026-04-20 07:13 37.38648 29.61081 29999 ft 459 kts 296°
2026-04-20 07:13 37.41413 29.53844 29987 ft 459 kts 297°
2026-04-20 07:14 37.44189 29.46607 29995 ft 459 kts 297°
2026-04-20 07:14 37.46954 29.39352 29988 ft 460 kts 296°
2026-04-20 07:15 37.49633 29.32099 29996 ft 460 kts 296°
2026-04-20 07:15 37.52318 29.24777 30007 ft 461 kts 296°
2026-04-20 07:16 37.55009 29.17448 30007 ft 461 kts 296°
2026-04-20 07:16 37.57705 29.10102 30006 ft 462 kts 296°
2026-04-20 07:17 37.60403 29.02735 30002 ft 462 kts 295°
2026-04-20 07:17 37.63013 28.95591 30010 ft 462 kts 295°
2026-04-20 07:18 37.65695 28.88231 30009 ft 462 kts 295°
2026-04-20 07:18 37.68371 28.80867 30019 ft 462 kts 295°
2026-04-20 07:19 37.71049 28.73485 30012 ft 462 kts 295°
2026-04-20 07:19 37.73708 28.66098 30011 ft 462 kts 295°
2026-04-20 07:20 37.76330 28.58684 30017 ft 463 kts 294°
2026-04-20 07:20 37.78950 28.51247 30020 ft 463 kts 294°
2026-04-20 07:21 37.81572 28.43803 30016 ft 464 kts 294°
2026-04-20 07:21 37.84192 28.36349 30011 ft 464 kts 294°
2026-04-20 07:22 37.86367 28.30148 30021 ft 464 kts 294°
2026-04-20 07:22 37.88978 28.22687 30021 ft 464 kts 294°
2026-04-20 07:23 37.91584 28.15221 30024 ft 464 kts 294°
2026-04-20 07:23 37.94186 28.07748 30029 ft 464 kts 294°
2026-04-20 07:24 37.96786 28.00262 30019 ft 464 kts 294°
2026-04-20 07:24 37.99304 27.92996 30030 ft 464 kts 294°
2026-04-20 07:25 38.02151 27.85685 30025 ft 463 kts 298°
2026-04-20 07:25 38.05062 27.78392 30032 ft 464 kts 294°
2026-04-20 07:26 38.07630 27.70883 30032 ft 464 kts 293°
2026-04-20 07:26 38.10160 27.63400 30026 ft 464 kts 294°
2026-04-20 07:27 38.12744 27.55889 30031 ft 464 kts 294°
2026-04-20 07:27 38.15341 27.48390 30040 ft 464 kts 294°
2026-04-20 07:28 38.17935 27.40889 30040 ft 464 kts 294°
2026-04-20 07:28 38.20523 27.33378 30045 ft 464 kts 294°
2026-04-20 07:29 38.23104 27.25863 30043 ft 464 kts 294°
2026-04-20 07:29 38.25681 27.18343 30024 ft 464 kts 294°
2026-04-20 07:30 38.28257 27.10809 30021 ft 464 kts 294°
2026-04-20 07:30 38.31050 27.03401 30019 ft 465 kts 302°
2026-04-20 07:31 38.34916 26.97115 30037 ft 466 kts 313°
2026-04-20 07:31 38.39775 26.91619 30039 ft 468 kts 319°
2026-04-20 07:32 38.44742 26.86243 30054 ft 468 kts 318°
2026-04-20 07:32 38.49680 26.80827 30056 ft 468 kts 318°
2026-04-20 07:33 38.54597 26.75375 30056 ft 468 kts 318°
2026-04-20 07:33 38.59505 26.69912 30073 ft 468 kts 318°
2026-04-20 07:34 38.64409 26.64447 30059 ft 468 kts 318°
2026-04-20 07:34 38.69310 26.58976 30062 ft 467 kts 318°
2026-04-20 07:35 38.76626 26.50791 30067 ft 467 kts 318°
2026-04-20 07:35 38.81399 26.45165 30062 ft 466 kts 311°
2026-04-20 07:36 38.85362 26.38615 30070 ft 464 kts 302°
2026-04-20 07:36 38.88564 26.31423 30076 ft 464 kts 299°
2026-04-20 07:37 38.91672 26.24157 30070 ft 465 kts 298°
2026-04-20 07:37 38.94796 26.16880 30066 ft 465 kts 299°
2026-04-20 07:38 38.97936 26.09603 30064 ft 466 kts 299°
2026-04-20 07:38 39.01072 26.02339 30063 ft 466 kts 299°
2026-04-20 07:39 39.04126 25.95252 30065 ft 466 kts 299°
2026-04-20 07:39 39.07264 25.87952 30063 ft 466 kts 299°
2026-04-20 07:40 39.10392 25.80655 30059 ft 465 kts 299°
2026-04-20 07:40 39.13514 25.73355 30058 ft 465 kts 299°
2026-04-20 07:41 39.16628 25.66056 30060 ft 465 kts 299°
2026-04-20 07:41 39.19713 25.58810 30054 ft 464 kts 299°
2026-04-20 07:42 39.22817 25.51501 30062 ft 464 kts 299°
2026-04-20 07:42 39.25917 25.44183 30059 ft 465 kts 298°
2026-04-20 07:43 39.29011 25.36864 30058 ft 465 kts 298°
2026-04-20 07:43 39.32105 25.29526 30054 ft 465 kts 298°
2026-04-20 07:44 39.35197 25.22177 30059 ft 466 kts 298°
2026-04-20 07:44 39.38292 25.14803 30062 ft 467 kts 298°
2026-04-20 07:45 39.41385 25.07416 30053 ft 467 kts 298°
2026-04-20 07:45 39.44474 25.00019 30051 ft 468 kts 298°
2026-04-20 07:46 39.47479 24.92809 30053 ft 468 kts 298°
2026-04-20 07:46 39.50568 24.85377 30055 ft 469 kts 298°
2026-04-20 07:47 39.53655 24.77934 30052 ft 469 kts 298°
2026-04-20 07:47 39.56742 24.70470 30053 ft 470 kts 298°
2026-04-20 07:48 39.59821 24.63011 30051 ft 469 kts 298°
2026-04-20 07:48 39.62895 24.55543 30050 ft 469 kts 298°
2026-04-20 07:49 39.65965 24.48068 30053 ft 469 kts 298°
2026-04-20 07:49 39.69026 24.40594 30052 ft 469 kts 298°
2026-04-20 07:50 39.72082 24.33116 30051 ft 468 kts 298°
2026-04-20 07:50 39.75110 24.25689 30049 ft 468 kts 298°
2026-04-20 07:51 39.78151 24.18210 30051 ft 468 kts 298°
2026-04-20 07:51 39.81183 24.10736 30052 ft 467 kts 298°
2026-04-20 07:52 39.84210 24.03256 30053 ft 467 kts 298°
2026-04-20 07:52 39.87138 23.96001 30046 ft 466 kts 298°
2026-04-20 07:53 39.90148 23.88529 30047 ft 465 kts 298°
2026-04-20 07:53 39.93147 23.81063 30048 ft 465 kts 298°
2026-04-20 07:54 39.96143 23.73586 30050 ft 465 kts 298°
2026-04-20 07:54 39.99121 23.66135 30047 ft 463 kts 298°
2026-04-20 07:55 40.02073 23.58731 30045 ft 461 kts 298°
2026-04-20 07:55 40.05023 23.51315 30047 ft 460 kts 298°
2026-04-20 07:56 40.07963 23.43904 30049 ft 459 kts 298°
2026-04-20 07:56 40.10894 23.36498 30054 ft 458 kts 298°
2026-04-20 07:57 40.13815 23.29102 30046 ft 457 kts 298°
2026-04-20 07:57 40.16721 23.21723 30046 ft 456 kts 298°
2026-04-20 07:58 40.19618 23.14349 30051 ft 456 kts 298°
2026-04-20 07:58 40.22491 23.07019 30051 ft 456 kts 297°
2026-04-20 07:59 40.25307 22.99814 30047 ft 456 kts 297°
2026-04-20 07:59 40.28181 22.92446 30051 ft 457 kts 297°
2026-04-20 08:00 40.31070 22.85020 30051 ft 458 kts 297°
2026-04-20 08:00 40.33859 22.77831 30049 ft 458 kts 297°
2026-04-20 08:01 40.36747 22.70373 30215 ft 458 kts 297°
2026-04-20 08:01 40.38189 22.66638 30338 ft 459 kts 297°
2026-04-20 08:01 40.39434 22.63412 30439 ft 459 kts 297°
2026-04-20 08:02 40.40875 22.59674 30581 ft 459 kts 297°
2026-04-20 08:02 40.42316 22.55931 30688 ft 459 kts 297°
2026-04-20 08:02 40.43750 22.52201 30798 ft 459 kts 297°
2026-04-20 08:02 40.45170 22.48504 30944 ft 458 kts 297°
2026-04-20 08:03 40.46621 22.44722 31051 ft 458 kts 297°
2026-04-20 08:03 40.48037 22.41025 31154 ft 459 kts 297°
2026-04-20 08:03 40.49468 22.37284 31295 ft 459 kts 297°
2026-04-20 08:03 40.50900 22.33537 31419 ft 459 kts 297°
2026-04-20 08:04 40.52331 22.29787 31545 ft 459 kts 297°
2026-04-20 08:04 40.53762 22.26031 31672 ft 459 kts 297°
2026-04-20 08:04 40.55189 22.22283 31797 ft 459 kts 296°
2026-04-20 08:04 40.56617 22.18525 31919 ft 458 kts 296°
2026-04-20 08:05 40.59456 22.11043 32036 ft 456 kts 296°
2026-04-20 08:05 40.62283 22.03571 32044 ft 456 kts 296°
2026-04-20 08:06 40.65015 21.96336 32054 ft 456 kts 296°
2026-04-20 08:06 40.67830 21.88858 32058 ft 456 kts 296°
2026-04-20 08:07 40.70643 21.81368 32050 ft 456 kts 296°
2026-04-20 08:07 40.73452 21.73871 32052 ft 456 kts 296°
2026-04-20 08:08 40.76254 21.66371 32049 ft 455 kts 296°
2026-04-20 08:08 40.79048 21.58872 32057 ft 455 kts 296°
2026-04-20 08:09 40.81836 21.51373 32053 ft 455 kts 296°
2026-04-20 08:09 40.84145 21.45147 32055 ft 455 kts 296°
2026-04-20 08:10 40.86933 21.37642 32049 ft 454 kts 298°
2026-04-20 08:10 40.90893 21.29510 32054 ft 454 kts 305°
2026-04-20 08:11 40.94580 21.22723 32054 ft 454 kts 305°
2026-04-20 08:11 40.97650 21.17024 32057 ft 454 kts 305°
2026-04-20 08:12 41.01282 21.10226 32052 ft 455 kts 305°
2026-04-20 08:12 41.04901 21.03420 32062 ft 455 kts 305°
2026-04-20 08:13 41.08454 20.96725 32062 ft 455 kts 305°
2026-04-20 08:13 41.12089 20.89861 32072 ft 454 kts 305°
2026-04-20 08:14 41.15717 20.82996 32082 ft 454 kts 305°
2026-04-20 08:14 41.19330 20.76143 32073 ft 453 kts 305°
2026-04-20 08:15 41.22942 20.69278 32073 ft 452 kts 305°
2026-04-20 08:15 41.26533 20.62436 32051 ft 451 kts 305°
2026-04-20 08:16 41.30120 20.55588 32056 ft 451 kts 305°
2026-04-20 08:16 41.33628 20.48678 32057 ft 451 kts 301°
2026-04-20 08:17 41.36504 20.41262 32052 ft 451 kts 297°
2026-04-20 08:17 41.39309 20.33780 32068 ft 452 kts 297°
2026-04-20 08:18 41.42130 20.26297 32066 ft 452 kts 297°
2026-04-20 08:18 41.44961 20.18807 32064 ft 452 kts 297°
2026-04-20 08:19 41.47788 20.11322 32054 ft 452 kts 297°
2026-04-20 08:19 41.50614 20.03817 32060 ft 452 kts 297°
2026-04-20 08:20 41.53319 19.96616 32070 ft 451 kts 297°
2026-04-20 08:20 41.56127 19.89119 32061 ft 451 kts 297°
2026-04-20 08:21 41.58918 19.81648 32074 ft 450 kts 297°
2026-04-20 08:21 41.61709 19.74156 32066 ft 450 kts 297°
2026-04-20 08:22 41.64493 19.66663 32063 ft 450 kts 297°
2026-04-20 08:22 41.67269 19.59176 32064 ft 449 kts 297°
2026-04-20 08:23 41.70042 19.51675 32065 ft 449 kts 297°
2026-04-20 08:23 41.72805 19.44180 32058 ft 449 kts 297°
2026-04-20 08:24 41.75558 19.36696 32069 ft 449 kts 297°
2026-04-20 08:24 41.78321 19.29192 32082 ft 448 kts 297°
2026-04-20 08:25 41.81153 19.21749 32068 ft 448 kts 298°
2026-04-20 08:25 41.84005 19.14313 32067 ft 448 kts 298°
2026-04-20 08:26 41.86816 19.06939 32069 ft 447 kts 297°
2026-04-20 08:26 41.89542 18.99750 32066 ft 446 kts 297°
2026-04-20 08:27 41.92334 18.92360 32062 ft 445 kts 297°
2026-04-20 08:27 41.95128 18.84943 32065 ft 445 kts 297°
2026-04-20 08:28 41.97917 18.77521 32053 ft 445 kts 297°
2026-04-20 08:28 42.00682 18.70145 32058 ft 444 kts 297°
2026-04-20 08:29 42.03462 18.62708 32057 ft 444 kts 297°
2026-04-20 08:29 42.06232 18.55282 32052 ft 444 kts 297°
2026-04-20 08:30 42.08999 18.47842 32052 ft 444 kts 297°
2026-04-20 08:30 42.11762 18.40394 32041 ft 444 kts 297°
2026-04-20 08:31 42.14518 18.32945 32064 ft 444 kts 297°
2026-04-20 08:31 42.17271 18.25486 32051 ft 445 kts 297°
2026-04-20 08:32 42.20000 18.18070 32050 ft 445 kts 297°
2026-04-20 08:32 42.22747 18.10588 32048 ft 445 kts 297°
2026-04-20 08:33 42.26780 17.99566 32049 ft 445 kts 297°
2026-04-20 08:34 42.29512 17.92076 32052 ft 445 kts 297°
2026-04-20 08:34 42.32240 17.84574 32045 ft 445 kts 297°
2026-04-20 08:35 42.34962 17.77071 32047 ft 445 kts 297°
2026-04-20 08:35 42.37681 17.69557 32046 ft 444 kts 297°
2026-04-20 08:36 42.40391 17.62047 32048 ft 444 kts 297°
2026-04-20 08:36 42.43098 17.54525 32050 ft 445 kts 297°
2026-04-20 08:37 42.45804 17.46985 32049 ft 445 kts 297°
2026-04-20 08:37 42.48501 17.39449 32044 ft 445 kts 297°
2026-04-20 08:38 42.51179 17.31949 32061 ft 445 kts 297°
2026-04-20 08:38 42.53865 17.24404 32046 ft 444 kts 297°
2026-04-20 08:39 42.56540 17.16871 32049 ft 443 kts 297°
2026-04-20 08:39 42.59207 17.09338 32048 ft 442 kts 297°
2026-04-20 08:40 42.61865 17.01813 32041 ft 442 kts 297°
2026-04-20 08:40 42.64437 16.94511 32050 ft 441 kts 297°
2026-04-20 08:41 42.67079 16.86991 32049 ft 441 kts 297°
2026-04-20 08:41 42.69720 16.79449 32050 ft 442 kts 297°
2026-04-20 08:42 42.72356 16.71905 32049 ft 442 kts 296°
2026-04-20 08:42 42.74989 16.64349 32051 ft 442 kts 296°
2026-04-20 08:43 42.77616 16.56789 32048 ft 442 kts 296°
2026-04-20 08:43 42.80237 16.49223 32049 ft 442 kts 296°
2026-04-20 08:44 42.82727 16.42017 32046 ft 442 kts 296°
2026-04-20 08:44 42.85339 16.34439 32049 ft 441 kts 296°
2026-04-20 08:45 42.87939 16.26875 32041 ft 440 kts 296°
2026-04-20 08:45 42.90529 16.19316 32043 ft 439 kts 296°
2026-04-20 08:46 42.93111 16.11763 32043 ft 438 kts 296°
2026-04-20 08:46 42.95680 16.04226 32043 ft 438 kts 296°
2026-04-20 08:47 42.98187 15.96851 32042 ft 438 kts 296°
2026-04-20 08:47 43.00734 15.89339 32041 ft 438 kts 296°
2026-04-20 08:48 43.03271 15.81835 32040 ft 438 kts 296°
2026-04-20 08:48 43.05820 15.74276 32039 ft 438 kts 296°
2026-04-20 08:49 43.08366 15.66703 32037 ft 438 kts 296°
2026-04-20 08:49 43.10907 15.59122 32031 ft 438 kts 296°
2026-04-20 08:50 43.13445 15.51532 32036 ft 439 kts 296°
2026-04-20 08:50 43.15979 15.43930 32036 ft 439 kts 296°
2026-04-20 08:51 43.18510 15.36317 32053 ft 439 kts 296°
2026-04-20 08:51 43.21035 15.28701 32023 ft 439 kts 296°
2026-04-20 08:52 43.23552 15.21087 32027 ft 438 kts 296°
2026-04-20 08:52 43.26058 15.13485 32032 ft 437 kts 296°
2026-04-20 08:53 43.28540 15.05932 32033 ft 437 kts 296°
2026-04-20 08:53 43.30960 14.98550 32038 ft 436 kts 296°
2026-04-20 08:54 43.33446 14.90946 32034 ft 436 kts 295°
2026-04-20 08:54 43.35912 14.83380 32036 ft 436 kts 295°
2026-04-20 08:55 43.38401 14.75722 32034 ft 436 kts 295°
2026-04-20 08:55 43.40855 14.68150 32035 ft 436 kts 295°
2026-04-20 08:56 43.43318 14.60528 32038 ft 436 kts 295°
2026-04-20 08:56 43.45781 14.52887 32035 ft 437 kts 295°
2026-04-20 08:57 43.48236 14.45244 32030 ft 437 kts 295°
2026-04-20 08:57 43.50291 14.38834 32034 ft 437 kts 295°
2026-04-20 08:58 43.52721 14.31230 32037 ft 437 kts 295°
2026-04-20 08:58 43.55158 14.23583 32028 ft 436 kts 295°
2026-04-20 08:59 43.57589 14.15933 32024 ft 435 kts 295°
2026-04-20 08:59 43.60011 14.08287 32030 ft 434 kts 295°
2026-04-20 09:00 43.62422 14.00657 32027 ft 434 kts 295°
2026-04-20 09:00 43.64753 13.93258 32031 ft 434 kts 295°
2026-04-20 09:01 43.67157 13.85604 32019 ft 434 kts 295°
2026-04-20 09:01 43.69556 13.77943 32016 ft 434 kts 295°
2026-04-20 09:02 43.71852 13.70591 32011 ft 434 kts 294°
2026-04-20 09:02 43.74239 13.62927 32006 ft 434 kts 294°
2026-04-20 09:03 43.76626 13.55238 32002 ft 435 kts 294°
2026-04-20 09:03 43.78992 13.47597 31994 ft 435 kts 294°
2026-04-20 09:04 43.80980 13.41156 32007 ft 435 kts 294°